User: anonymous   Login
Location: Tyumen
(57.1527°N, 65.5323°E)
Time: 07:37:58
(UTC+05:00)
Language:

ISS - Orbit

View from above orbital plane
View from above orbital plane
View from above satellite
View from above satellite

Ground track
Ground track

The orbit is defined by the following mean orbital elements,

1 25544U          26101.81196220 +.00000000 +00000-0 +11297-3 0 00005
2 25544  51.6328 268.5866 0006452 301.0443  58.9912 15.48876576    01
Epoch (UTC): 11 April 2026 19:29:13
Eccentricity: 0.0006452
inclination: 51.6328°
perigee height: 416 km
apogee height: 424 km
right ascension of ascending node: 268.5866°
argument of perigee: 301.0443°
revolutions per day: 15.48876576
mean anomaly at epoch: 58.9912°

The dashed part of the orbit path shows where the satellite is in the earth's shadow,  

DLR